Time,TemperatureF,DewpointF,PressureIn,WindDirection,WindDirectionDegrees,WindSpeedMPH,WindSpeedGustMPH,Humidity,HourlyPrecipIn,Conditions,Clouds,dailyrainin,SoftwareType,DateUTC
2013-01-21 00:02:00,28.1,2.0,30.13,West,279,27.0,37.0,32,0.00,,,0.00,weatherlink.com 1.10,2013-01-21 07:02:00,
2013-01-21 00:17:00,27.9,1.0,30.14,WSW,245,12.0,33.0,32,0.00,,,0.00,weatherlink.com 1.10,2013-01-21 07:17:00,
2013-01-21 00:32:00,27.5,1.0,30.15,West,264,6.0,22.0,32,0.00,,,0.00,weatherlink.com 1.10,2013-01-21 07:32:00,
2013-01-21 00:47:00,27.2,2.0,30.14,WSW,255,9.0,20.0,33,0.00,,,0.00,weatherlink.com 1.10,2013-01-21 07:47:00,
2013-01-21 01:02:00,26.7,1.0,30.14,WSW,245,7.0,11.0,33,0.00,,,0.00,weatherlink.com 1.10,2013-01-21 08:02:00,
2013-01-21 01:17:00,26.4,1.0,30.14,South,186,2.0,18.0,33,0.00,,,0.00,weatherlink.com 1.10,2013-01-21 08:17:00,
2013-01-21 01:32:00,26.2,1.0,30.16,SW,231,12.0,18.0,34,0.00,,,0.00,weatherlink.com 1.10,2013-01-21 08:32:00,
2013-01-21 01:47:00,26.5,1.0,30.17,WNW,294,9.0,18.0,33,0.00,,,0.00,weatherlink.com 1.10,2013-01-21 08:47:00,
2013-01-21 02:02:00,26.8,1.0,30.17,WSW,238,15.0,25.0,33,0.00,,,0.00,weatherlink.com 1.10,2013-01-21 09:02:00,
2013-01-21 02:17:00,26.7,1.0,30.18,WNW,286,10.0,17.0,33,0.00,,,0.00,weatherlink.com 1.10,2013-01-21 09:17:00,
2013-01-21 02:32:00,26.6,1.0,30.17,WNW,283,5.0,21.0,33,0.00,,,0.00,weatherlink.com 1.10,2013-01-21 09:32:00,
2013-01-21 02:47:00,26.1,1.0,30.16,WSW,246,7.0,20.0,33,0.00,,,0.00,weatherlink.com 1.10,2013-01-21 09:47:00,
2013-01-21 03:02:00,26.3,1.0,30.15,WSW,257,21.0,31.0,33,0.00,,,0.00,weatherlink.com 1.10,2013-01-21 10:02:00,
2013-01-21 03:17:00,26.6,1.0,30.14,WSW,250,21.0,26.0,33,0.00,,,0.00,weatherlink.com 1.10,2013-01-21 10:17:00,
2013-01-21 03:33:00,27.2,2.0,30.14,SW,236,14.0,28.0,33,0.00,,,0.00,weatherlink.com 1.10,2013-01-21 10:33:00,
2013-01-21 03:48:00,27.3,2.0,30.13,WSW,255,11.0,29.0,34,0.00,,,0.00,weatherlink.com 1.10,2013-01-21 10:48:00,
2013-01-21 04:03:00,27.5,2.0,30.14,WSW,237,10.0,27.0,34,0.00,,,0.00,weatherlink.com 1.10,2013-01-21 11:03:00,
2013-01-21 04:18:00,27.8,3.0,30.14,West,261,25.0,32.0,34,0.00,,,0.00,weatherlink.com 1.10,2013-01-21 11:18:00,
2013-01-21 04:33:00,27.9,2.0,30.14,SW,215,26.0,37.0,33,0.00,,,0.00,weatherlink.com 1.10,2013-01-21 11:33:00,
2013-01-21 04:48:00,27.9,2.0,30.15,WSW,246,22.0,36.0,33,0.00,,,0.00,weatherlink.com 1.10,2013-01-21 11:48:00,
2013-01-21 05:03:00,27.0,1.0,30.16,SW,223,16.0,32.0,33,0.00,,,0.00,weatherlink.com 1.10,2013-01-21 12:03:00,
2013-01-21 05:18:00,26.3,1.0,30.17,WSW,239,11.0,23.0,34,0.00,,,0.00,weatherlink.com 1.10,2013-01-21 12:18:00,
2013-01-21 05:33:00,25.9,2.0,30.17,West,259,13.0,22.0,35,0.00,,,0.00,weatherlink.com 1.10,2013-01-21 12:33:00,
2013-01-21 05:48:00,25.9,2.0,30.17,SW,236,8.0,23.0,36,0.00,,,0.00,weatherlink.com 1.10,2013-01-21 12:48:00,
2013-01-21 06:03:00,25.6,2.0,30.17,WSW,238,3.0,18.0,36,0.00,,,0.00,weatherlink.com 1.10,2013-01-21 13:03:00,
2013-01-21 06:18:00,25.3,2.0,30.17,West,260,2.0,19.0,37,0.00,,,0.00,weatherlink.com 1.10,2013-01-21 13:18:00,
2013-01-21 06:33:00,25.1,2.0,30.17,SW,228,12.0,17.0,37,0.00,,,0.00,weatherlink.com 1.10,2013-01-21 13:33:00,
2013-01-21 06:48:00,25.3,3.0,30.17,WSW,239,6.0,23.0,38,0.00,,,0.00,weatherlink.com 1.10,2013-01-21 13:48:00,
2013-01-21 07:03:00,25.6,3.0,30.17,West,263,13.0,19.0,38,0.00,,,0.00,weatherlink.com 1.10,2013-01-21 14:03:00,
2013-01-21 07:18:00,26.6,5.0,30.17,WSW,237,24.0,39.0,40,0.00,,,0.00,weatherlink.com 1.10,2013-01-21 14:18:00,
2013-01-21 07:33:00,27.5,5.0,30.17,SW,232,23.0,34.0,38,0.00,,,0.00,weatherlink.com 1.10,2013-01-21 14:33:00,
2013-01-21 07:48:00,27.3,5.0,30.18,WSW,252,10.0,31.0,38,0.00,,,0.00,weatherlink.com 1.10,2013-01-21 14:48:00,
2013-01-21 08:03:00,27.5,5.0,30.18,West,266,8.0,23.0,39,0.00,,,0.00,weatherlink.com 1.10,2013-01-21 15:03:00,
2013-01-21 08:18:00,27.9,5.0,30.17,WSW,255,20.0,31.0,38,0.00,,,0.00,weatherlink.com 1.10,2013-01-21 15:18:00,
2013-01-21 08:33:00,28.1,6.0,30.15,WSW,253,16.0,32.0,39,0.00,,,0.00,weatherlink.com 1.10,2013-01-21 15:33:00,
2013-01-21 08:48:00,28.7,5.0,30.16,WSW,246,19.0,27.0,37,0.00,,,0.00,weatherlink.com 1.10,2013-01-21 15:48:00,
2013-01-21 09:03:00,29.2,6.0,30.15,SW,222,16.0,46.0,37,0.00,,,0.00,weatherlink.com 1.10,2013-01-21 16:03:00,
2013-01-21 09:18:00,29.5,5.0,30.15,SW,232,18.0,35.0,36,0.00,,,0.00,weatherlink.com 1.10,2013-01-21 16:18:00,
2013-01-21 09:33:00,29.9,6.0,30.15,West,259,13.0,32.0,36,0.00,,,0.00,weatherlink.com 1.10,2013-01-21 16:33:00,
2013-01-21 09:48:00,30.2,6.0,30.17,West,259,30.0,33.0,36,0.00,,,0.00,weatherlink.com 1.10,2013-01-21 16:48:00,
2013-01-21 10:03:00,30.7,7.0,30.19,SW,232,22.0,38.0,36,0.00,,,0.00,weatherlink.com 1.10,2013-01-21 17:03:00,
2013-01-21 10:18:00,30.5,7.0,30.17,SW,214,20.0,36.0,37,0.00,,,0.00,weatherlink.com 1.10,2013-01-21 17:18:00,
2013-01-21 10:33:00,30.5,7.0,30.17,WSW,258,16.0,34.0,37,0.00,,,0.00,weatherlink.com 1.10,2013-01-21 17:33:00,
2013-01-21 10:48:00,30.7,8.0,30.17,West,277,30.0,45.0,38,0.00,,,0.00,weatherlink.com 1.10,2013-01-21 17:48:00,
2013-01-21 11:03:00,30.9,8.0,30.16,SW,234,24.0,39.0,38,0.00,,,0.00,weatherlink.com 1.10,2013-01-21 18:03:00,
2013-01-21 11:18:00,31.5,8.0,30.16,WSW,252,29.0,42.0,37,0.00,,,0.00,weatherlink.com 1.10,2013-01-21 18:18:00,
2013-01-21 11:33:00,31.9,8.0,30.16,SW,222,23.0,41.0,36,0.00,,,0.00,weatherlink.com 1.10,2013-01-21 18:33:00,
2013-01-21 11:48:00,32.4,7.0,30.14,WSW,250,14.0,39.0,35,0.00,,,0.00,weatherlink.com 1.10,2013-01-21 18:48:00,
2013-01-21 12:03:00,32.8,7.0,30.14,West,263,19.0,29.0,34,0.00,,,0.00,weatherlink.com 1.10,2013-01-21 19:03:00,
2013-01-21 12:18:00,32.6,7.0,30.15,WSW,252,16.0,36.0,34,0.00,,,0.00,weatherlink.com 1.10,2013-01-21 19:18:00,
2013-01-21 12:33:00,33.0,7.0,30.15,West,274,18.0,31.0,33,0.00,,,0.00,weatherlink.com 1.10,2013-01-21 19:33:00,
2013-01-21 12:48:00,34.2,6.0,30.15,West,263,8.0,28.0,31,0.00,,,0.00,weatherlink.com 1.10,2013-01-21 19:48:00,
2013-01-21 13:04:00,34.9,5.0,30.14,SW,234,10.0,28.0,29,0.00,,,0.00,weatherlink.com 1.10,2013-01-21 20:04:00,
2013-01-21 13:18:00,34.4,5.0,30.15,West,275,22.0,36.0,29,0.00,,,0.00,weatherlink.com 1.10,2013-01-21 20:18:00,
2013-01-21 13:33:00,34.3,5.0,30.14,WNW,290,11.0,35.0,29,0.00,,,0.00,weatherlink.com 1.10,2013-01-21 20:33:00,
2013-01-21 13:48:00,33.3,5.0,30.14,WSW,256,23.0,30.0,30,0.00,,,0.00,weatherlink.com 1.10,2013-01-21 20:48:00,
2013-01-21 14:03:00,32.5,5.0,30.12,SW,230,16.0,31.0,31,0.00,,,0.00,weatherlink.com 1.10,2013-01-21 21:03:00,
2013-01-21 14:18:00,34.0,5.0,30.12,SW,234,19.0,36.0,30,0.00,,,0.00,weatherlink.com 1.10,2013-01-21 21:18:00,
2013-01-21 14:33:00,34.3,5.0,30.11,SW,222,23.0,37.0,29,0.00,,,0.00,weatherlink.com 1.10,2013-01-21 21:33:00,
2013-01-21 14:48:00,34.5,4.0,30.11,West,259,11.0,38.0,28,0.00,,,0.00,weatherlink.com 1.10,2013-01-21 21:48:00,
2013-01-21 15:03:00,34.5,4.0,30.09,WSW,249,33.0,41.0,28,0.00,,,0.00,weatherlink.com 1.10,2013-01-21 22:03:00,
2013-01-21 15:19:00,34.0,4.0,30.11,WSW,252,21.0,38.0,28,0.00,,,0.00,weatherlink.com 1.10,2013-01-21 22:19:00,
2013-01-21 15:34:00,34.5,4.0,30.13,WSW,242,22.0,33.0,27,0.00,,,0.00,weatherlink.com 1.10,2013-01-21 22:34:00,
2013-01-21 15:49:00,34.6,3.0,30.13,WNW,287,13.0,30.0,26,0.00,,,0.00,weatherlink.com 1.10,2013-01-21 22:49:00,
2013-01-21 16:19:00,33.5,-1.0,30.10,SW,231,25.0,44.0,23,0.00,,,0.00,weatherlink.com 1.10,2013-01-21 23:19:00,
2013-01-21 16:34:00,33.2,0.0,30.10,West,265,20.0,41.0,24,0.00,,,0.00,weatherlink.com 1.10,2013-01-21 23:34:00,
2013-01-21 16:49:00,33.5,-2.0,30.10,WSW,241,9.0,40.0,22,0.00,,,0.00,weatherlink.com 1.10,2013-01-21 23:49:00,
2013-01-21 17:04:00,33.9,-2.0,30.11,WNW,301,14.0,43.0,21,0.00,,,0.00,weatherlink.com 1.10,2013-01-22 00:04:00,
2013-01-21 17:19:00,33.7,-3.0,30.11,West,269,25.0,44.0,21,0.00,,,0.00,weatherlink.com 1.10,2013-01-22 00:19:00,
2013-01-21 17:34:00,33.0,-2.0,30.12,WSW,244,26.0,43.0,22,0.00,,,0.00,weatherlink.com 1.10,2013-01-22 00:34:00,
2013-01-21 17:49:00,32.5,-2.0,30.13,WSW,255,37.0,49.0,23,0.00,,,0.00,weatherlink.com 1.10,2013-01-22 00:49:00,
2013-01-21 18:04:00,32.3,-1.0,30.11,West,271,27.0,53.0,24,0.00,,,0.00,weatherlink.com 1.10,2013-01-22 01:04:00,
2013-01-21 18:19:00,32.1,-1.0,30.12,WSW,255,27.0,46.0,24,0.00,,,0.00,weatherlink.com 1.10,2013-01-22 01:19:00,
2013-01-21 18:34:00,31.9,-1.0,30.14,SW,225,21.0,52.0,24,0.00,,,0.00,weatherlink.com 1.10,2013-01-22 01:34:00,
2013-01-21 18:49:00,31.9,-2.0,30.14,WSW,239,25.0,46.0,23,0.00,,,0.00,weatherlink.com 1.10,2013-01-22 01:49:00,
2013-01-21 19:04:00,31.8,-2.0,30.14,SW,236,12.0,44.0,23,0.00,,,0.00,weatherlink.com 1.10,2013-01-22 02:04:00,
2013-01-21 19:19:00,32.4,-4.0,30.16,West,261,28.0,42.0,21,0.00,,,0.00,weatherlink.com 1.10,2013-01-22 02:19:00,
2013-01-21 19:34:00,32.4,-4.0,30.15,West,259,25.0,40.0,21,0.00,,,0.00,weatherlink.com 1.10,2013-01-22 02:34:00,
2013-01-21 19:49:00,32.6,-4.0,30.15,SW,219,18.0,46.0,21,0.00,,,0.00,weatherlink.com 1.10,2013-01-22 02:49:00,
2013-01-21 20:05:00,32.5,-4.0,30.16,SW,235,15.0,45.0,21,0.00,,,0.00,weatherlink.com 1.10,2013-01-22 03:05:00,
2013-01-21 20:20:00,32.3,-4.0,30.16,WSW,242,28.0,47.0,21,0.00,,,0.00,weatherlink.com 1.10,2013-01-22 03:20:00,
2013-01-21 20:35:00,32.3,-4.0,30.16,West,266,26.0,41.0,21,0.00,,,0.00,weatherlink.com 1.10,2013-01-22 03:35:00,
2013-01-21 20:50:00,32.3,-4.0,30.14,NW,311,27.0,48.0,21,0.00,,,0.00,weatherlink.com 1.10,2013-01-22 03:50:00,
2013-01-21 21:05:00,32.5,-4.0,30.15,West,270,22.0,52.0,21,0.00,,,0.00,weatherlink.com 1.10,2013-01-22 04:05:00,
2013-01-21 21:20:00,32.2,-4.0,30.17,SW,221,17.0,44.0,21,0.00,,,0.00,weatherlink.com 1.10,2013-01-22 04:20:00,
2013-01-21 21:35:00,31.9,-3.0,30.18,SW,225,16.0,42.0,22,0.00,,,0.00,weatherlink.com 1.10,2013-01-22 04:35:00,
2013-01-21 21:50:00,31.9,-3.0,30.19,West,261,19.0,42.0,22,0.00,,,0.00,weatherlink.com 1.10,2013-01-22 04:50:00,
2013-01-21 22:05:00,31.7,-3.0,30.16,WSW,254,24.0,35.0,22,0.00,,,0.00,weatherlink.com 1.10,2013-01-22 05:05:00,
2013-01-21 22:20:00,31.8,-3.0,30.15,SW,234,20.0,39.0,22,0.00,,,0.00,weatherlink.com 1.10,2013-01-22 05:20:00,
2013-01-21 22:35:00,31.5,-3.0,30.17,SW,219,10.0,32.0,22,0.00,,,0.00,weatherlink.com 1.10,2013-01-22 05:35:00,
2013-01-21 22:50:00,31.5,-3.0,30.16,WSW,253,15.0,32.0,22,0.00,,,0.00,weatherlink.com 1.10,2013-01-22 05:50:00,
2013-01-21 23:05:00,32.2,-5.0,30.15,WSW,253,17.0,34.0,20,0.00,,,0.00,weatherlink.com 1.10,2013-01-22 06:05:00,
2013-01-21 23:20:00,32.4,-6.0,30.14,West,280,29.0,43.0,19,0.00,,,0.00,weatherlink.com 1.10,2013-01-22 06:20:00,
2013-01-21 23:36:00,32.8,-7.0,30.14,WSW,238,31.0,42.0,18,0.00,,,0.00,weatherlink.com 1.10,2013-01-22 06:36:00,
2013-01-21 23:51:00,32.6,-7.0,30.13,WSW,250,19.0,38.0,18,0.00,,,0.00,weatherlink.com 1.10,2013-01-22 06:51:00,